Tracking 29747 objects as of 10-Oct-2024
HD Live streaming from Space Station
objects crossing your sky now

DELTA 1 DEB

Track DELTA 1 DEB now!
10-day predictions


NORAD ID: 42640
Int'l Code: 1975-052LZ
Perigee: 937.7 km
Apogee: 1,262.9 km
Inclination: 99.8 °
Period: 107.1 minutes
Semi major axis: 7471 km
RCS: Unknown
Launch date: June 12, 1975
Source: United States (US)
Launch site: AIR FORCE WESTERN TEST RANGE (AFWTR)

Note: This is SATELLITE DEBRIS
Your satellite tracking list
Your tracking list is empty




NASA's NSSDC Master Catalog

Two Line Element Set (TLE):
1 42640U 75052LZ  24283.46178566  .00002179  00000-0  33090-2 0  9993
2 42640  99.7743  97.1560 0217612 140.2005 251.9945 13.44346042533283
Source of the keplerian elements: AFSPC